Zurück zum Katalog

STARLINK-5976

AktivKommunikationSSO
NORAD 56343·PAYLOAD·🇺🇸 United States

Gestartet Apr 27, 2023 von Vandenberg Space Force Base

Loading…

Nächste Überflüge (nächste 24 Stunden)

TLE

AktuellSource: CelesTrak SupGP

Epoche: Sep 14, 2026, 13:15 UTC

1 56343C 23058AC  26257.55256944 -.00030549  00000+0 -94831-3 0  2578
2 56343  97.2848 254.3954 0001643  91.8537 277.8142 15.33453735    11

Verfolge STARLINK-5976 in Echtzeit mit AllMySat

Download on the App Store